Weather History for Paris, TX

Change the Weather History Date:

Monday, April 15, 2013

  Actual Average Record
Temperature  
Mean Temperature 75 °F -  
Max Temperature 86 °F 72 °F 86 °F (2013)
Min Temperature 64 °F 52 °F 32 °F (2014)
Cooling Degree Days 10    
Growing Degree Days 25 (Base 50)    
Moisture  
Dew Point 62 °F    
Average Humidity 70    
Maximum Humidity 88    
Minimum Humidity 48    
Precipitation  
Precipitation 0.00 in - - ()
Sea Level Pressure  
Sea Level Pressure 29.73 in    
Wind  
Wind Speed 12 mph (South)    
Max Wind Speed 22 mph    
Max Gust Speed 25 mph    
Visibility 10 miles    
Events      
Averages and records for this station are not official NWS values.
T = Trace of Precipitation, MM = Missing Value Source: NWS Daily Summary

Daily Weather History Graph

Daily Weather History Graph

Search for Another Location

Airport:

Trip Planner

Search our weather history database for the weather conditions in past years. The results will help you decide how hot, cold, wet, or windy it might be!

Date:

Astronomy

Apr. 15, 2013 Rise Set
Actual Time 6:50 AM CDT 7:53 PM CDT
Civil Twilight 6:25 AM CDT 8:18 PM CDT
Nautical Twilight 5:55 AM CDT 8:49 PM CDT
Astronomical Twilight 5:23 AM CDT 9:20 PM CDT
Moon 10:26 AM CDT (4/15) No Moon Set
Length of Visible Light 13h 53m
Length of Day
13h 02m
Waxing Crescent, 25% of the Moon is Illuminated
Apr 15
Waxing Crescent
Apr 18
First Quarter
Apr 25
Full
May 2
Last Quarter
May 9
New

Hourly Weather History & Observations

Time (CDT) Temp. Heat Index Dew Point Humidity Pressure Visibility Wind Dir Wind Speed Gust Speed Precip Events Conditions
12:15 AM 64.4 °F - 57.2 °F 77% 29.67 in 10.0 mi ESE 10.4 mph - N/A   Clear
12:35 AM 64.4 °F - 57.2 °F 77% 29.67 in 10.0 mi SE 10.4 mph - N/A   Clear
12:55 AM 64.4 °F - 57.2 °F 77% 29.67 in 10.0 mi SE 10.4 mph - N/A   Clear
1:15 AM 64.4 °F - 59.0 °F 83% 29.67 in 10.0 mi SE 11.5 mph - N/A   Clear
1:35 AM 64.4 °F - 59.0 °F 83% 29.66 in 10.0 mi SE 11.5 mph - N/A   Clear
1:55 AM 66.2 °F - 59.0 °F 78% 29.67 in 10.0 mi SE 12.7 mph - N/A   Clear
2:15 AM 66.2 °F - 59.0 °F 78% 29.66 in 10.0 mi SE 11.5 mph - N/A   Clear
2:35 AM 64.4 °F - 59.0 °F 83% 29.66 in 10.0 mi SE 11.5 mph - N/A   Clear
2:55 AM 64.4 °F - 59.0 °F 83% 29.66 in 10.0 mi SSE 10.4 mph - N/A   Clear
3:15 AM 64.4 °F - 59.0 °F 83% 29.66 in 10.0 mi SSE 9.2 mph - N/A   Clear
3:35 AM 64.4 °F - 59.0 °F 83% 29.66 in 10.0 mi SSE 10.4 mph - N/A   Clear
3:55 AM 64.4 °F - 59.0 °F 83% 29.66 in 10.0 mi SSE 11.5 mph - N/A   Partly Cloudy
4:15 AM 64.4 °F - 60.8 °F 88% 29.66 in 10.0 mi South 11.5 mph - N/A   Partly Cloudy
4:35 AM 66.2 °F - 60.8 °F 83% 29.67 in 10.0 mi South 13.8 mph - N/A   Scattered Clouds
4:55 AM 66.2 °F - 60.8 °F 83% 29.67 in 10.0 mi South 11.5 mph - N/A   Mostly Cloudy
5:15 AM 66.2 °F - 60.8 °F 83% 29.67 in 10.0 mi SSE 10.4 mph - N/A   Overcast
5:35 AM 64.4 °F - 60.8 °F 88% 29.68 in 10.0 mi SSE 9.2 mph - N/A   Overcast
5:55 AM 66.2 °F - 60.8 °F 83% 29.69 in 10.0 mi SSE 9.2 mph - N/A   Overcast
6:15 AM 66.2 °F - 62.6 °F 88% 29.69 in 10.0 mi SSE 9.2 mph - N/A   Overcast
6:35 AM 66.2 °F - 62.6 °F 88% 29.70 in 10.0 mi SSE 10.4 mph - N/A   Overcast
6:55 AM 66.2 °F - 62.6 °F 88% 29.71 in 10.0 mi SSE 11.5 mph - N/A   Overcast
7:15 AM 66.2 °F - 62.6 °F 88% 29.71 in 10.0 mi SSE 11.5 mph - N/A   Overcast
7:35 AM 66.2 °F - 62.6 °F 88% 29.73 in 10.0 mi South 10.4 mph - N/A   Overcast
7:55 AM 68.0 °F - 62.6 °F 83% 29.74 in 10.0 mi South 13.8 mph - N/A   Overcast
8:15 AM 68.0 °F - 62.6 °F 83% 29.75 in 10.0 mi South 10.4 mph - N/A   Overcast
8:35 AM 69.8 °F - 62.6 °F 78% 29.76 in 10.0 mi South 13.8 mph - N/A   Overcast
8:55 AM 69.8 °F - 62.6 °F 78% 29.77 in 10.0 mi South 12.7 mph - N/A   Overcast
9:15 AM 69.8 °F - 62.6 °F 78% 29.77 in 10.0 mi South 11.5 mph - N/A   Overcast
9:35 AM 69.8 °F - 62.6 °F 78% 29.78 in 10.0 mi South 11.5 mph - N/A   Overcast
9:55 AM 71.6 °F - 62.6 °F 73% 29.78 in 10.0 mi South 13.8 mph 18.4 mph N/A   Overcast
10:15 AM 71.6 °F - 64.4 °F 78% 29.79 in 10.0 mi South 15.0 mph - N/A   Overcast
10:35 AM 73.4 °F - 64.4 °F 73% 29.79 in 10.0 mi South 13.8 mph 20.7 mph N/A   Overcast
10:55 AM 73.4 °F - 64.4 °F 73% 29.80 in 10.0 mi South 18.4 mph 24.2 mph N/A   Overcast
11:15 AM 73.4 °F - 64.4 °F 73% 29.80 in 10.0 mi South 18.4 mph 23.0 mph N/A   Overcast
11:35 AM 75.2 °F - 64.4 °F 69% 29.80 in 10.0 mi South 16.1 mph 19.6 mph N/A   Overcast
11:55 AM 77.0 °F - 64.4 °F 65% 29.80 in 10.0 mi South 16.1 mph - N/A   Overcast
12:15 PM 77.0 °F - 64.4 °F 65% 29.80 in 10.0 mi South 16.1 mph 20.7 mph N/A   Mostly Cloudy
12:35 PM 78.8 °F - 66.2 °F 65% 29.79 in 10.0 mi South 16.1 mph 21.9 mph N/A   Scattered Clouds
12:55 PM 78.8 °F - 66.2 °F 65% 29.79 in 10.0 mi South 17.3 mph 23.0 mph N/A   Partly Cloudy
1:15 PM 80.6 °F 82.7 °F 66.2 °F 61% 29.79 in 10.0 mi South 15.0 mph 21.9 mph N/A   Partly Cloudy
1:35 PM 80.6 °F 82.7 °F 66.2 °F 61% 29.78 in 10.0 mi South 17.3 mph - N/A   Partly Cloudy
1:55 PM 82.4 °F 84.6 °F 66.2 °F 58% 29.77 in 10.0 mi SSW 18.4 mph 25.3 mph N/A   Clear
2:15 PM 82.4 °F 83.9 °F 64.4 °F 54% 29.77 in 10.0 mi South 20.7 mph - N/A   Clear
2:35 PM 82.4 °F 83.9 °F 64.4 °F 54% 29.76 in 10.0 mi South 16.1 mph - N/A   Clear
2:55 PM 84.2 °F 86.6 °F 66.2 °F 55% 29.76 in 10.0 mi South 18.4 mph 21.9 mph N/A   Clear
3:15 PM 84.2 °F 85.6 °F 64.4 °F 51% 29.76 in 10.0 mi South 20.7 mph 25.3 mph N/A   Clear
3:35 PM 84.2 °F 85.6 °F 64.4 °F 51% 29.75 in 10.0 mi South 18.4 mph 23.0 mph N/A   Clear
3:55 PM 84.2 °F 85.6 °F 64.4 °F 51% 29.74 in 10.0 mi South 18.4 mph 23.0 mph N/A   Clear
4:15 PM 84.2 °F 85.0 °F 62.6 °F 48% 29.74 in 10.0 mi South 19.6 mph 23.0 mph N/A   Clear
4:35 PM 84.2 °F 85.0 °F 62.6 °F 48% 29.73 in 10.0 mi South 21.9 mph - N/A   Clear
4:55 PM 86.0 °F 87.3 °F 64.4 °F 48% 29.73 in 10.0 mi South 18.4 mph 23.0 mph N/A   Clear
5:15 PM 86.0 °F 87.3 °F 64.4 °F 48% 29.73 in 10.0 mi South 15.0 mph 23.0 mph N/A   Clear
5:35 PM 86.0 °F 87.3 °F 64.4 °F 48% 29.73 in 10.0 mi South 13.8 mph 19.6 mph N/A   Clear
5:55 PM 84.2 °F 85.6 °F 64.4 °F 51% 29.72 in 10.0 mi SSE 15.0 mph - N/A   Clear
6:15 PM 84.2 °F 85.6 °F 64.4 °F 51% 29.73 in 10.0 mi SSE 16.1 mph - N/A   Clear
6:35 PM 82.4 °F 83.4 °F 62.6 °F 51% 29.72 in 10.0 mi South 16.1 mph 20.7 mph N/A   Clear
6:55 PM 82.4 °F 82.9 °F 60.8 °F 48% 29.72 in 10.0 mi South 13.8 mph 24.2 mph N/A   Clear
7:15 PM 80.6 °F 81.5 °F 60.8 °F 51% 29.72 in 10.0 mi South 10.4 mph - N/A   Clear
7:35 PM 78.8 °F - 62.6 °F 57% 29.73 in 10.0 mi SSE 9.2 mph - N/A   Clear
7:55 PM 75.2 °F - 62.6 °F 65% 29.73 in 10.0 mi South 8.1 mph - N/A   Clear
8:15 PM 75.2 °F - 62.6 °F 65% 29.74 in 10.0 mi South 8.1 mph - N/A   Clear
8:35 PM 75.2 °F - 62.6 °F 65% 29.74 in 10.0 mi South 5.8 mph - N/A   Clear
8:55 PM 73.4 °F - 62.6 °F 69% 29.75 in 10.0 mi South 8.1 mph - N/A   Clear
9:15 PM 73.4 °F - 62.6 °F 69% 29.75 in 10.0 mi SSE 9.2 mph - N/A   Clear
9:35 PM 73.4 °F - 62.6 °F 69% 29.75 in 10.0 mi SSE 11.5 mph - N/A   Clear
9:55 PM 75.2 °F - 62.6 °F 65% 29.76 in 10.0 mi South 12.7 mph - N/A   Clear
10:15 PM 75.2 °F - 62.6 °F 65% 29.77 in 10.0 mi South 12.7 mph - N/A   Clear
10:35 PM 75.2 °F - 62.6 °F 65% 29.78 in 10.0 mi South 12.7 mph - N/A   Clear
10:55 PM 73.4 °F - 62.6 °F 69% 29.77 in 10.0 mi SSE 13.8 mph - N/A   Clear
11:15 PM 73.4 °F - 62.6 °F 69% 29.78 in 10.0 mi SSE 12.7 mph - N/A   Clear
11:35 PM 73.4 °F - 62.6 °F 69% 29.78 in 10.0 mi SSE 11.5 mph - N/A   Clear
11:55 PM 73.4 °F - 62.6 °F 69% 29.78 in 10.0 mi SSE 12.7 mph - N/A   Clear